Starlink 32658

operational
NORAD ID: 62999 Int'l Des: 2025-031 Owner: SPXS Country: US Constellation: starlink
LEOCIRCULAR

关于 Starlink 32658

正在加载描述...

实时位置

正在加载3D地球...

即将过境

高度历史

Altitude vs Time

uPlot chart will show altitude changes over time

两行轨道根数

1 62999U 25031U 25350.43165867 .00026442 00000-0 96646-3 0 9993
2 62999 42.9989 253.3860 0000668 298.5144 61.5640 15.27596954 48364
Epoch: Dec 16, 2025 • Age: 25 hours

当前状态

高度 490.5 km
速度 7.62 km/s
星下点 -29.17°S, 145.37°W
发射日期 Feb 11, 2025
运行时间 0.8 years
类型 internet

技术详情

分类 Payload
质量 730.00 kg
干质量 700.00 kg
总质量 730.00 kg
长度 0.30 m
直径 4.10 m
跨度 29.00 m
形状 Box + pan
制造商 SPXS
平台类型 Starlink V2M
阶段状态 In Orbit
所有者/国家 SPXS/US

大型星座

Loading constellations...